Location: Binningen
(47.7924°N, 8.7261°E)
Time: 08:49:41
(UTC+00:00)

Spot 2 Rocket - Pass Details

Date: 17 May 2021
Orbit: 757 x 772 km, 98.5° (Epoch: 15 June)

Event Time Altitude Azimuth Distance (km) Brightness Sun altitude
Exits shadow 19:57:53 11° 137° (SE) 2,226 5.2 -8.7°
Maximum altitude 20:02:27 43° 67° (ENE) 1,067 4.1 -9.3°
Drops below altitude 10° 20:07:12 10° 358° (N) 2,299 6.7 -9.9°
Sets 20:09:36 0° 352° (N) 3,228 7.7 -10.2°
